TimeEDT,TemperatureF,Dew PointF,Humidity,Sea Level PressureIn,VisibilityMPH,Wind Direction,Wind SpeedMPH,Gust SpeedMPH,PrecipitationIn,Events,Conditions,WindDirDegrees,DateUTC
12:08 AM,30.0,24.1,79,29.66,10.0,Calm,Calm,-,N/A,,Mostly Cloudy,0,2013-03-26 04:08:00
12:53 AM,30.0,23.0,75,29.72,10.0,NNW,4.6,-,N/A,,Overcast,330,2013-03-26 04:53:00
1:53 AM,30.0,21.9,72,29.74,10.0,North,6.9,-,N/A,,Overcast,350,2013-03-26 05:53:00
2:53 AM,30.0,21.0,69,29.75,10.0,Calm,Calm,-,N/A,,Overcast,0,2013-03-26 06:53:00
3:02 AM,30.0,21.0,69,29.70,10.0,NNW,4.6,-,N/A,,Overcast,330,2013-03-26 07:02:00
3:53 AM,30.0,21.9,72,29.76,10.0,WNW,5.8,-,N/A,,Overcast,300,2013-03-26 07:53:00
4:53 AM,28.9,21.9,75,29.77,10.0,WNW,4.6,-,N/A,,Overcast,300,2013-03-26 08:53:00
5:53 AM,27.0,21.0,78,29.79,10.0,WNW,5.8,-,N/A,,Partly Cloudy,300,2013-03-26 09:53:00
7:53 AM,27.0,21.9,81,29.83,10.0,West,4.6,-,N/A,,Overcast,270,2013-03-26 11:53:00
8:53 AM,28.9,23.0,78,29.84,10.0,West,4.6,-,N/A,,Overcast,270,2013-03-26 12:53:00
9:53 AM,30.9,24.1,76,29.85,10.0,WNW,8.1,-,N/A,,Overcast,300,2013-03-26 13:53:00
10:53 AM,34.0,25.0,70,29.85,10.0,West,6.9,-,N/A,,Overcast,280,2013-03-26 14:53:00
11:53 AM,37.0,24.1,59,29.86,10.0,NW,10.4,-,N/A,,Overcast,320,2013-03-26 15:53:00
12:53 PM,39.0,21.9,50,29.86,10.0,NW,13.8,-,N/A,,Overcast,310,2013-03-26 16:53:00
1:53 PM,39.9,21.9,49,29.86,10.0,NW,16.1,24.2,N/A,,Overcast,310,2013-03-26 17:53:00
2:53 PM,39.9,21.0,47,29.86,10.0,NNW,12.7,-,N/A,,Overcast,340,2013-03-26 18:53:00
3:53 PM,39.9,19.0,43,29.86,10.0,NW,17.3,-,N/A,,Overcast,320,2013-03-26 19:53:00
4:53 PM,39.0,19.9,46,29.88,10.0,NNW,17.3,-,N/A,,Overcast,330,2013-03-26 20:53:00
5:53 PM,37.9,21.0,51,29.90,10.0,NW,12.7,26.5,N/A,,Overcast,320,2013-03-26 21:53:00
6:53 PM,37.9,21.9,53,29.92,10.0,NW,16.1,-,N/A,,Overcast,320,2013-03-26 22:53:00
7:53 PM,35.1,23.0,61,29.94,10.0,NW,12.7,-,N/A,,Overcast,320,2013-03-26 23:53:00
8:53 PM,35.1,24.1,64,29.96,10.0,WNW,8.1,-,N/A,,Overcast,300,2013-03-27 00:53:00
9:53 PM,35.1,26.1,70,29.97,10.0,WNW,12.7,-,N/A,,Overcast,300,2013-03-27 01:53:00
10:20 PM,34.0,26.1,73,29.93,10.0,WNW,6.9,-,N/A,,Overcast,290,2013-03-27 02:20:00
10:53 PM,34.0,26.1,73,29.98,10.0,WNW,9.2,-,N/A,,Overcast,290,2013-03-27 02:53:00
11:53 PM,33.1,24.1,70,29.98,10.0,WNW,12.7,-,N/A,,Overcast,300,2013-03-27 03:53:00